Regional Weather Roundup
Issued by NWS Charleston, SC

Current Version | Previous Version | Text Only | Print | Product List | Glossary Off
Versions: 1 2 3 4 5 6 7 8 9 10 11 12 13 14 15 16 17 18 19 20 21 22 23 24 25 26 27 28 29 30 31 32 33 34 35 36 37 38 39 40 41 42 43 44 45 46 47 48 49 50

000
ASUS42 KCHS 311128
RWRCHS

REGIONAL WEATHER ROUNDUP
NATIONAL WEATHER SERVICE CHARLESTON SC
700 AM EDT TUE MAY 31 2016

NOTE: "FAIR" INDICATES FEW OR NO CLOUDS BELOW 12,000 FEET WITH NO
SIGNIFICANT WEATHER AND/OR OBSTRUCTIONS TO VISIBILITY.

NOT ALL STATIONS ARE QUALITY CONTROLLED. USE DATA WITH CAUTION...
ESPECIALLY DEWPOINT OBSERVATIONS.

SCZ027-030-031-034>040-042>050-311200-
...SOUTHEAST SOUTH CAROLINA...

CITY           SKY/WX    TMP DP  RH WIND       PRES   REMARKS
N CHARLESTON   MOCLDY    72  69  90 NW7       29.91R
WATERFRONT PRK   N/A     71  71 100 VRB2      29.87R
MOUNT PLEASANT PTSUNNY   72  70  94 CALM      29.90R
JOHNS ISLAND   FAIR      72  72 100 CALM      29.91R
PINOPOLIS        N/A     73  70  88 N7        29.81R
MONCKS CORNER  CLOUDY    68  66  94 CALM      29.91R
SUMMERVILLE    PTSUNNY   70  70 100 NW3       29.92R FOG
BEAUFORT MCAS  CLOUDY    72  70  93 N5        29.91R
BEAUFORT ARPT  CLOUDY    72  70  94 NW3       29.91R FOG
HILTON HEAD IS PTCLDY    72  70  94 N6        29.92R
WALTERBORO     FOG       72  72 100 N3        29.93R VSB 1/2
ALLENDALE      CLOUDY    70  70 100 CALM      29.93R FOG

...SOUTHERN MIDLANDS AND PEE DEE...

CITY           SKY/WX    TMP DP  RH WIND       PRES   REMARKS
GEORGETOWN     PTSUNNY   70  68  94 N3        29.90R
KINGSTREE      CLOUDY    70  68  94 NW3       29.91R
ORANGEBURG     CLOUDY    71  69  93 N3        29.93R FOG
BARNWELL       FOG       72  72 100 NE6       29.94R VSB 1/2
AIKEN          PTSUNNY   64  64 100 CALM      29.98R
MANNING        CLOUDY    70  68  94 NW3       29.92R FOG
COLUMBIA       FOG       71  68  90 NE3       29.94R VSB 1
SUMTER         CLOUDY    72  68  88 N6        29.92R
FLORENCE       CLOUDY    72  70  93 NE7       29.92R FOG
MYRTLE BEACH   CLOUDY    72  63  73 N8        29.90R
N MYRTLE BEACH CLOUDY    71  70  96 N6        29.88R FOG

$$

GAZ063-065-086>088-099>101-113>116-118-119-134>141-150-311200-
...SOUTHEAST GEORGIA...

CITY           SKY/WX    TMP DP  RH WIND       PRES   REMARKS
SAVANNAH ARPT  MOCLDY    71  68  90 N5        29.91R
HUNTER AAF     PTCLDY    74  73  98 CALM      29.89R
FORT STEWART   CLEAR     68  66  92 CALM      29.89R
STATESBORO     CLEAR     70  69  99 CALM      29.93R
SYLVANIA       SUNNY     71  69  94 CALM      29.93R FOG
CLAXTON        FAIR      67  67 100 CALM      29.92S

...CSRA...CENTRAL AND FAR SOUTHEAST GEORGIA...

CITY           SKY/WX    TMP DP  RH WIND       PRES   REMARKS
THOMSON        CLEAR     67  67 100 CALM      29.99R
AUGUSTA-BUSH   CLEAR     66  66 100 CALM      29.92R
AUGUSTA-DANIEL CLEAR     72  67  84 N3        29.94R
SWAINSBORO     FAIR      68  66  94 CALM      29.94R
VIDALIA        CLEAR     70  66  88 CALM      29.92R
EASTMAN        FAIR     N/A N/A N/A CALM      29.95R
HAZLEHURST     FAIR      71  71 100 CALM      29.92R
ALMA           MOCLDY    69  68  96 CALM      29.92R
WAYCROSS       PTCLDY    68  68 100 SW3       29.93R
JESUP          FAIR      63  63 100 CALM      29.93R
BAXLEY         FAIR      70  68  94 CALM      29.92R
BRUNSWICK      MOCLDY    75  72  88 SW5       29.93R
SAINT SIMONS   PTCLDY    72  70  93 W9        29.92R

$$

SCZ027-028-034-036>038-045-046-048>050-GAZ119-141-311200-
...LAKE AND SUPPLEMENTAL COASTAL OBSERVATIONS...

STATION/POSITION TIME  TEMP    WIND        PRES    WAVE   SWELL
                       AIR SEA DIR/SP/G            HT/PER HT/PER/DIR
                 (UTC) (F)     (DEG/KT/KT) (MB)    (FT/S) (FT/S/D)
WINYAH BAY       1000   70     340/  7     1010.0S
LAKE MURRAY      1100   68      20/  1/  3 1013.5R
ACE BASIN NERRS  1000   70        CALM     1012.0S
FORT PULASKI     1100   74 76  350/  3/  3 1013.0R
SAPELO ISLAND    1100   73     240/  4     1013.0R

$$

ANZ835-935-AMZ111-154-330-350-352-354-370-450-454-472-311200-
...C-MAN AND BUOY OBSERVATIONS...

STATION/POSITION TIME  TEMP    WIND        PRES    WAVE   SWELL
                       AIR SEA DIR/SP/G            HT/PER HT/PER/DIR
                 (UTC) (F)     (DEG/KT/KT) (MB)    (FT/S) (FT/S/D)
BUOY 41004       1050   74 77  310/ 14/ 16 1011.2R   4/ 8   3/ 8
BUOY 41008       1050   76 77  260/ 12/ 14 1012.3R   3/ 8   2/ 90/ 8
FOLLY BEACH CMAN 1100   71     290/  3/  4 1012.7R
CAPERS NEARSHORE 1108   72 76  330/  8/ 10 1012.0R
FRIPP NEARSHORE  1108   73 76  340/  6/ 10 1012.2R


STATION/POSITION TIME  TEMP    WIND        PRES    WAVE   SWELL
                       AIR SEA DIR/SP/G            HT/PER HT/PER/DIR
                 (UTC) (F)     (DEG/KT/KT) (MB)    (FT/S) (FT/S/D)
5E ST. MARYS GA  1101      78                N/A     3/ 8
FRYING PAN BUOY  1100   75 78  110/  6/  8 1011.3R
BUOY 41025       1050   76 80  170/ 17/ 19 1013.0R   6/ 9   5/150/ 9
CAPE LOOKOUT NC  1100   75      80/  1/  1 1012.3R
BUOY 41002       1050   75 75  150/ 10/ 12 1014.8R   5/ 8   5/100/ 8
BUOY 41010       1020   79 79  190/ 10/ 12 1013.7R
ST AUGUSTINE FL  1100   72 78  260/  8/ 11 1014.0R


$$




USA.gov is the U.S. government's official web portal to all federal, state and local government web resources and services.